Home > Weather > Kaunas > Past weeks

Flag for Lithuania Weather for the Past 2 Weeks in Kaunas, Lithuania

Now
48 °F

Passing clouds.


Feels Like: 45 °F
Forecast: 46 / 70 °F
Wind: 7 mph from North

Location: Kaunas

Current Time: May 6, 2016 at 7:21:57 AM

Latest Report: May 6, 2016 at 6:50 AM


Visibility: N/A

Pressure: 30.21 "Hg

Humidity: 62%

Dew Point: 36 °F

Location of KaunasLocation

Historic Weather in Kaunas — Graph

°F

Kaunas Temperature Yesterday

Maximum temperature yesterday: 68 °F (at 2:50 PM)
Minimum temperature yesterday: 48 °F (at 3:50 AM)
Average temperature yesterday: 59 °F

High & Low Weather Summary for the Past Weeks

 TemperatureHumidityPressure
High68 °F (May 5, 2:50 PM)100% (Apr 23, 4:50 AM)30.30 "Hg (Apr 23, 4:50 AM)
Low28 °F (Apr 27, 3:20 AM)30% (Apr 21, 5:20 PM)29.53 "Hg (Apr 24, 9:50 AM)
Average47 °F72%29.96 "Hg
* Reported Apr 21 6:20 AM — May 6 6:20 AM, Kaunas, Weather by CustomWeather, © 2016

Note: Actual official high and low records may vary slightly from our data, if they occured in-between our weather recording intervals... More about our weather records

Advertising

Kaunas Weather History for the Previous 24 Hours

Scroll right to see more
 ConditionsComfort  
Time TempWeatherWind HumidityBarometerVisibility
6:20 AM
Fri, May 6
46 °FPassing clouds.6 mph66%30.21 "HgN/A
5:50 AM48 °FPassing clouds.6 mph62%30.18 "HgN/A
5:20 AM48 °FPassing clouds.6 mph62%30.21 "HgN/A
4:50 AM50 °FPassing clouds.8 mph58%30.21 "HgN/A
4:20 AM50 °FClear.9 mph58%30.21 "Hg10 mi
3:50 AM52 °FClear.9 mph54%30.21 "Hg10 mi
3:20 AM52 °FOvercast.7 mph58%30.21 "HgN/A
2:50 AM52 °FOvercast.7 mph58%30.21 "HgN/A
2:20 AM52 °FOvercast.7 mph58%30.21 "HgN/A
1:50 AM52 °FOvercast.6 mph54%30.21 "HgN/A
1:20 AM52 °FPassing clouds.6 mph54%30.21 "HgN/A
12:50 AM54 °FCool.6 mph51%30.21 "HgN/A
11:50 PM
Thu, May 5
55 °FPassing clouds.6 mph51%30.21 "HgN/A
11:20 PM57 °FPassing clouds.7 mph48%30.21 "HgN/A
10:50 PM57 °FClear.7 mph51%30.21 "Hg10 mi
10:20 PM59 °FPassing clouds.6 mph48%30.18 "HgN/A
9:50 PM61 °FPassing clouds.8 mph45%30.18 "HgN/A
9:20 PM61 °FSunny.3 mph48%30.18 "Hg10 mi
8:50 PM63 °FPassing clouds.6 mph45%30.18 "HgN/A
8:20 PM64 °FPassing clouds.7 mph46%30.18 "HgN/A
7:50 PM66 °FPassing clouds.6 mph40%30.18 "HgN/A
7:20 PM66 °FPassing clouds.7 mph40%30.18 "HgN/A
6:50 PM68 °FPassing clouds.7 mph38%30.18 "HgN/A
6:20 PM68 °FPassing clouds.10 mph35%30.18 "HgN/A
5:50 PM68 °FScattered clouds.10 mph35%30.18 "HgN/A
5:20 PM68 °FPassing clouds.9 mph38%30.18 "HgN/A
4:50 PM68 °FPassing clouds.8 mph40%30.18 "HgN/A
4:20 PM68 °FPassing clouds.10 mph40%30.18 "HgN/A
3:50 PM68 °FPassing clouds.10 mph38%30.21 "HgN/A
3:20 PM68 °FPassing clouds.10 mph38%30.21 "HgN/A
2:50 PM68 °FPassing clouds.10 mph35%30.21 "HgN/A
2:20 PM66 °FPassing clouds.10 mph35%30.21 "HgN/A
1:50 PM66 °FPassing clouds.10 mph35%30.21 "HgN/A
1:20 PM66 °FPassing clouds.10 mph35%30.24 "HgN/A
12:50 PM64 °FPassing clouds.12 mph34%30.24 "HgN/A
12:20 PM64 °FPassing clouds.12 mph46%30.24 "HgN/A
11:50 AM63 °FPassing clouds.9 mph49%30.24 "HgN/A
11:20 AM61 °FPassing clouds.8 mph48%30.24 "HgN/A
10:50 AM61 °FPassing clouds.8 mph48%30.24 "HgN/A
10:20 AM59 °FPassing clouds.9 mph55%30.24 "HgN/A
9:50 AM57 °FPassing clouds.8 mph59%30.24 "HgN/A
9:20 AM55 °FScattered clouds.7 mph67%30.24 "HgN/A
8:50 AM55 °FPassing clouds.8 mph63%30.24 "HgN/A
8:20 AM54 °FPassing clouds.7 mph67%30.21 "HgN/A
7:50 AM50 °FPassing clouds.8 mph67%30.21 "HgN/A
7:20 AM50 °FPassing clouds.7 mph67%30.21 "HgN/A
Weather by CustomWeather, © 2016

See weather overviewHow to use our weather pages